[[{"header":{"parameterUnit":"m.s-1","parameterCategory":2,"la1":30.2991,"la2":30.254,"lo1":-89.0895,"lo2":-89.0444,"dy":0.0017,"dx":0.0017,"nx":28,"ny":28,"refTime":"2023-10-17T09:00:00:Z","depth":"0","parameterNumber":2,"parameterNumberName":"U-component_of_CURRENTS"},"data":[0,0,0,0,0,0,0,0,0,0,0,0,0,0,0,0,0,0,0,0,0,0,0,0,0,0,0,0,0,0,0,0,0,0,0,0,0,0,0,0,0,0,0,0,0,0,0,0,0,0,0,0,0,0,0,0,0,0,0.2588,0.2589,0,0.2615,0.2614,0.2614,0.2582,0.2582,0.2581,0.2581,0.256,0.256,0.256,0,0,0,0,0,0,0,0,0,0,0,0,0,0.2578,0.2577,0.2588,0.2589,0.259,0.2615,0.2614,0.2614,0.2583,0.2582,0.2581,0.258,0.256,0.256,0.256,0,0,0,0,0,0,0,0,0,0,0,0,0,0.2584,0.2577,0.2587,0.2582,0.2582,0.2615,0.2614,0.2614,0.2583,0.2582,0.2581,0.258,0.256,0.256,0.256,0.2577,0,0,0.256,0.256,0,0,0,0,0,0,0,0,0.2584,0.2584,0.2582,0.2582,0.2583,0.26,0.2604,0.2602,0.2583,0.2575,0.2581,0.258,0.2574,0.2573,0.2571,0.2576,0.2576,0.256,0.256,0.256,0.256,0,0,0,0,0,0,0,0.2583,0.2583,0.2592,0.2583,0.2584,0.2602,0.26,0.2603,0.2573,0.2576,0.2575,0.2589,0.2573,0.2571,0.257,0.2575,0.256,0.256,0.256,0.256,0.2638,0.264,0,0,0,0,0,0,0.2591,0.2582,0.2591,0.2593,0.2589,0.2603,0.2601,0.259,0.2574,0.2573,0.259,0.2588,0.2572,0.2571,0.257,0.2692,0.256,0.256,0.256,0.2636,0.2638,0.264,0,0,0,0,0,0,0.259,0.259,0.259,0.2595,0.2597,0.2604,0.2592,0.2591,0.259,0.2587,0.2583,0.2591,0.2571,0.257,0.2582,0.2687,0.256,0.256,0.2633,0.2636,0.2639,0.2871,0,0,0,0,0,0,0.2589,0.2589,0.2594,0.2595,0.2597,0.2633,0.2593,0.2592,0.2603,0.26,0.2586,0.2583,0.257,0.2582,0.2582,0.2685,0.256,0.263,0.2635,0.2638,0.2861,0.2882,0.2899,0,0,0,0,0,0.2588,0.2609,0.2593,0.2595,0.2599,0.2635,0.2639,0.2636,0.2604,0.2625,0.2604,0.2584,0.2607,0.2584,0.2583,0.2688,0.2629,0.2633,0.2638,0.2852,0.2877,0.2899,0,0,0,0,0,0,0.2601,0.2608,0.259,0.2608,0.2628,0.2633,0.2668,0.2641,0.2639,0.2638,0.2601,0.2599,0.2667,0.2617,0.2591,0.2714,0.2619,0.2624,0.2782,0.2805,0.2824,0.2872,0.256,0,0,0,0,0,0.2607,0.2633,0.2631,0.2654,0.2667,0.2659,0.2674,0.2669,0.2668,0.2666,0.266,0.2653,0.2686,0.2692,0.2709,0.2755,0.2752,0.2819,0.2839,0.2856,0.2891,0.2985,0.3018,0.2656,0.2655,0.2655,0,0,0.2621,0.2633,0.2644,0.2662,0.2677,0.2736,0.2666,0.2706,0.2763,0.2666,0.2741,0.273,0.2713,0.2795,0.2818,0.2764,0.295,0.2862,0.2878,0.2903,0.2993,0.3029,0.3062,0.2659,0.2658,0.2658,0,0,0.2701,0.2671,0.2734,0.2757,0.2796,0.28,0.2811,0.2824,0.2838,0.2886,0.286,0.2907,0.2911,0.296,0.2972,0.3096,0.3061,0.3083,0.322,0.3312,0.3344,0.3373,0.3398,0.3427,0.3081,0.3082,0.3082,0,0.2723,0.2777,0.2761,0.2835,0.2863,0.2835,0.2903,0.2936,0.2954,0.2969,0.2938,0.3008,0.3015,0.313,0.3194,0.3157,0.3159,0.3144,0.3346,0.3373,0.3399,0.3417,0.3446,0.3094,0.3092,0.3091,0.309,0,0.2861,0.2894,0.2939,0.3017,0.3048,0.3101,0.3132,0.3171,0.3167,0.3178,0.3269,0.3284,0.3308,0.3347,0.3321,0.3501,0.3428,0.3377,0.3303,0.3451,0.3458,0.3485,0.3111,0.3106,0.3103,0.31,0,0,0.2928,0.3014,0.3028,0.3054,0.3131,0.3154,0.3274,0.3336,0.337,0.3436,0.3489,0.3622,0.3588,0.3602,0.3588,0.3694,0.3896,0.3624,0.3623,0.3678,0.4057,0.3969,0.3987,0.388,0.3886,0.3891,0.3986,0,0.3037,0.316,0.3189,0.3294,0.3342,0.3351,0.3437,0.3491,0.3517,0.3566,0.363,0.3675,0.3694,0.3694,0.3828,0.3851,0.3977,0.3872,0.3879,0.3879,0.3811,0.4021,0.376,0.3821,0.4011,0.4015,0.4018,0,0.3177,0.3219,0.3326,0.3366,0.3386,0.3446,0.3506,0.3581,0.3662,0.3675,0.3759,0.3758,0.3922,0.3897,0.4111,0.4031,0.4096,0.4134,0.4136,0.4,0.3843,0.3703,0.386,0.3655,0.4057,0.4054,0.4052,0,0.321,0.3313,0.3374,0.3398,0.346,0.3495,0.353,0.3605,0.3637,0.3731,0.3741,0.3895,0.3936,0.4093,0.4182,0.4153,0.4382,0.4323,0.4319,0.4308,0.4063,0.4021,0.4052,0.454,0.4539,0.4539,0.4539,0,0.3303,0.3347,0.3376,0.34,0.3437,0.3486,0.3532,0.3586,0.3649,0.3687,0.378,0.3834,0.3998,0.4111,0.422,0.4345,0.4415,0.4409,0.4371,0.4128,0.4093,0.3877,0.3816,0.4542,0.4542,0.4541,0.454,0,0.3331,0.3373,0.3416,0.3448,0.3453,0.3471,0.3502,0.3529,0.3601,0.3657,0.3686,0.3808,0.3955,0.4093,0.4298,0.4354,0.4342,0.4519,0.4193,0.4119,0.3914,0.3875,0.3844,0.3748,0.4541,0.454,0.4539,0,0.3355,0.3384,0.3405,0.3409,0.3417,0.3437,0.3447,0.3502,0.3527,0.3641,0.3663,0.38,0.3879,0.4112,0.4229,0.4386,0.4283,0.4243,0.4193,0.3935,0.3862,0.3755,0.367,0.3934,0.3928,0.3924,0.392,0,0.3362,0.337,0.3383,0.3375,0.3378,0.3371,0.3389,0.3389,0.3465,0.3504,0.3574,0.3641,0.3838,0.3862,0.4044,0.4121,0.3965,0.4154,0.3984,0.3515,0.3304,0.3175,0.3794,0.3879,0.3883,0.3886,0.3888,0.389,0.3349,0.3335,0.3341,0.3318,0.3319,0.3278,0.3219,0.3249,0.3244,0.3254,0.3428,0.3472,0.3528,0.3733,0.3769,0.3592,0.3738,0.3479,0.3488,0.3429,0.325,0.3776,0.3759,0.3762,0.3765,0.3768,0.377,0,0.3303,0.3288,0.3275,0.3226,0.3167,0.3192,0.3148,0.3059,0.2987,0.3092,0.3135,0.3169,0.3106,0.3137,0.3032,0.2921,0.2826,0.2816,0.2569,0.2553,0.3074,0.2954,0.264,0.264,0.264,0.2641,0.2641,0.2641,0.3292,0.3245,0.3205,0.3069,0.3023,0.2865,0.2798,0.2703,0.2714,0.2652,0.2667,0.2779,0.2757,0.2579,0.2329,0.2276,0.2106,0.2003,0.2103,0.2377,0.2436,0.2492,0.2362,0.193,0.1929,0.1398,0.1393,0.139]},{"header":{"parameterUnit":"m.s-1","parameterCategory":2,"la1":30.2991,"la2":30.254,"lo1":-89.0895,"lo2":-89.0444,"dy":0.0017,"dx":0.0017,"nx":28,"ny":28,"refTime":"2023-10-17T09:00:00:Z","depth":"0","parameterNumber":3,"parameterNumberName":"V-component_of_CURRENTS"},"data":[0,0,0,0,0,0,0,0,0,0,0,0,0,0,0,0,0,0,0,0,0,0,0,0,0,0,0,0,0,0,0,0,0,0,0,0,0,0,0,0,0,0,0,0,0,0,0,0,0,0,0,0,0,0,0,0,0,0,-0.0128,-0.0129,0,-0.0158,-0.0158,-0.0158,-0.0218,-0.0219,-0.022,-0.0221,-0.0288,-0.0289,-0.0289,0,0,0,0,0,0,0,0,0,0,0,0,0,-0.0127,-0.0127,-0.0128,-0.0129,-0.0129,-0.0158,-0.0158,-0.0159,-0.0218,-0.0219,-0.022,-0.0222,-0.0288,-0.0289,-0.029,0,0,0,0,0,0,0,0,0,0,0,0,0,-0.014,-0.0127,-0.0128,-0.0162,-0.0165,-0.0158,-0.0158,-0.0159,-0.0217,-0.0219,-0.0221,-0.0222,-0.0288,-0.0289,-0.029,-0.0262,0,0,-0.0293,-0.0293,0,0,0,0,0,0,0,0,-0.0139,-0.014,-0.0156,-0.0159,-0.0163,-0.0186,-0.0182,-0.0195,-0.0217,-0.0198,-0.0221,-0.0223,-0.0256,-0.0259,-0.0261,-0.0265,-0.0268,-0.0293,-0.0294,-0.0294,-0.0294,0,0,0,0,0,0,0,-0.0138,-0.0139,-0.014,-0.0157,-0.0161,-0.0177,-0.018,-0.0185,-0.0218,-0.02,-0.0204,-0.0206,-0.0258,-0.026,-0.0263,-0.0269,-0.0293,-0.0294,-0.0295,-0.0295,-0.0234,-0.0232,0,0,0,0,0,0,-0.0131,-0.0138,-0.0139,-0.0141,-0.0155,-0.0175,-0.0179,-0.0177,-0.0217,-0.0224,-0.0205,-0.0209,-0.0257,-0.0262,-0.0266,-0.0216,-0.0294,-0.0295,-0.0296,-0.0236,-0.0233,-0.0231,0,0,0,0,0,0,-0.0131,-0.0131,-0.0138,-0.014,-0.0142,-0.0173,-0.017,-0.0177,-0.0185,-0.022,-0.0229,-0.0208,-0.0259,-0.0264,-0.0256,-0.0221,-0.0296,-0.0297,-0.0239,-0.0235,-0.0232,-0.013,0,0,0,0,0,0,-0.0131,-0.013,-0.012,-0.014,-0.0142,-0.0116,-0.0169,-0.0176,-0.0183,-0.0189,-0.0225,-0.0233,-0.0261,-0.0254,-0.0257,-0.0223,-0.0297,-0.0242,-0.0237,-0.0233,-0.0136,-0.0123,-0.0112,0,0,0,0,0,-0.0131,-0.0102,-0.0119,-0.0119,-0.0129,-0.0114,-0.0115,-0.0145,-0.0182,-0.0164,-0.0192,-0.0232,-0.023,-0.0253,-0.0257,-0.0223,-0.0244,-0.0239,-0.0234,-0.0141,-0.0126,-0.0113,0,0,0,0,0,0,-0.0086,-0.0106,-0.0125,-0.0102,-0.0103,-0.0124,-0.0107,-0.0138,-0.0147,-0.0159,-0.0205,-0.0212,-0.0192,-0.0215,-0.024,-0.019,-0.0242,-0.0238,-0.0171,-0.0156,-0.0145,-0.0099,-0.0298,0,0,0,0,0,-0.0073,-0.0063,-0.008,-0.0058,-0.0055,-0.0083,-0.0083,-0.0105,-0.0119,-0.0126,-0.0154,-0.0173,-0.017,-0.0172,-0.0177,-0.0148,-0.0138,-0.0127,-0.0115,-0.0105,-0.0068,0.0013,0.0036,-0.0214,-0.0214,-0.0214,0,0,-0.0051,-0.0058,-0.0053,-0.0049,-0.0053,-0.003,-0.0086,-0.0075,-0.0059,-0.013,-0.0111,-0.0134,-0.0153,-0.0122,-0.0114,-0.014,-0.0039,-0.0099,-0.009,-0.0058,0.0021,0.0046,0.0068,-0.0211,-0.0211,-0.0212,0,0,0.0007,-0.0003,0.0025,0.003,0.0027,0.0016,0.002,0.0001,-0.0005,0.0013,-0.0033,-0.002,-0.0033,-0.0025,-0.0026,0.0055,0.002,0.0035,0.0133,0.0211,0.0233,0.0253,0.0253,0.0272,0.0042,0.0043,0.0043,0,0.0032,0.006,0.004,0.0071,0.008,0.004,0.0073,0.0076,0.006,0.0073,0.0036,0.0058,0.0029,0.0089,0.0111,0.0084,0.0096,0.0075,0.0229,0.0249,0.0267,0.0264,0.0283,0.0048,0.0047,0.0047,0.0046,0,0.0108,0.0128,0.0153,0.0171,0.0186,0.021,0.0205,0.0219,0.0197,0.0195,0.0241,0.0222,0.0239,0.0227,0.0192,0.03,0.0251,0.0233,0.0195,0.0299,0.0287,0.0306,0.0056,0.0054,0.0052,0.0051,0,0,0.015,0.0194,0.0199,0.0218,0.0232,0.0251,0.0299,0.0333,0.037,0.0371,0.0438,0.0445,0.0429,0.0431,0.0391,0.0454,0.0561,0.0403,0.0405,0.0407,0.0689,0.0616,0.0628,0.0574,0.0579,0.0583,0.0611,0,0.0206,0.0281,0.0285,0.0349,0.038,0.0371,0.0423,0.045,0.0465,0.0525,0.0534,0.0576,0.0508,0.0519,0.0579,0.0575,0.0623,0.0552,0.0586,0.0587,0.0515,0.0654,0.0634,0.0658,0.0629,0.0632,0.0635,0,0.0267,0.0303,0.038,0.0427,0.0443,0.0478,0.0543,0.0583,0.0657,0.0676,0.0733,0.0731,0.0812,0.0743,0.0826,0.0783,0.0756,0.0746,0.0746,0.067,0.0553,0.0559,0.0692,0.0508,0.0663,0.066,0.0658,0,0.0296,0.0362,0.0424,0.0441,0.05,0.0534,0.0563,0.0629,0.0685,0.0779,0.0842,0.0911,0.0963,0.0987,0.0946,0.0905,0.103,0.0963,0.0866,0.0855,0.0845,0.0827,0.0819,0.1047,0.1047,0.1047,0.1047,0,0.0345,0.039,0.0442,0.0474,0.0549,0.0571,0.0659,0.0702,0.0795,0.0903,0.0923,0.103,0.104,0.109,0.1032,0.1016,0.1099,0.0928,0.0897,0.087,0.0855,0.0695,0.0625,0.1048,0.1048,0.1047,0.1047,0,0.038,0.0414,0.048,0.0543,0.0567,0.0619,0.0707,0.078,0.0857,0.1007,0.1051,0.1156,0.1223,0.1188,0.122,0.1124,0.1026,0.1062,0.0986,0.0947,0.0664,0.0601,0.0632,0.0584,0.0978,0.0977,0.0976,0,0.0417,0.0455,0.0527,0.0564,0.0594,0.0666,0.0729,0.0807,0.0899,0.1092,0.1188,0.1287,0.139,0.1376,0.1248,0.1147,0.1008,0.1003,0.0935,0.0691,0.0599,0.0554,0.0509,0.0933,0.0931,0.093,0.093,0,0.0474,0.0492,0.0539,0.0608,0.067,0.0764,0.086,0.0949,0.108,0.1222,0.1422,0.1521,0.1505,0.1438,0.1258,0.1154,0.0893,0.0976,0.0795,0.0646,0.0538,0.046,0.0797,0.0921,0.0922,0.0923,0.0923,0.0924,0.051,0.054,0.0585,0.0652,0.0733,0.0861,0.0956,0.1089,0.1268,0.15,0.158,0.1762,0.158,0.1363,0.1175,0.0765,0.0833,0.0628,0.059,0.0578,0.0501,0.0777,0.0818,0.0819,0.0819,0.0819,0.0819,0,0.0537,0.0563,0.0625,0.0717,0.0818,0.0862,0.1046,0.1165,0.139,0.161,0.1784,0.1826,0.155,0.1231,0.0715,0.0431,0.0353,0.027,0.0209,0.0198,0.0503,0.0462,0.0344,0.0344,0.0345,0.0345,0.0345,0.0345,0.0552,0.059,0.0614,0.0765,0.0851,0.1011,0.1131,0.1321,0.1503,0.1761,0.1911,0.2021,0.176,0.0824,0.0166,0.0034,-0.0137,-0.0147,-0.0222,-0.0057,-0.0027,0.0001,-0.0058,-0.0282,-0.0283,-0.0515,-0.0518,-0.052]}],[{"header":{"parameterUnit":"m.s-1","parameterCategory":2,"la1":30.2991,"la2":30.254,"lo1":-89.0895,"lo2":-89.0444,"dy":0.0017,"dx":0.0017,"nx":28,"ny":28,"refTime":"2023-10-17T09:00:00:Z","depth":"2","parameterNumber":2,"parameterNumberName":"U-component_of_CURRENTS"},"data":[0,0,0,0,0,0,0,0,0,0,0,0,0,0,0,0,0,0,0,0,0,0,0,0,0,0,0,0,0,0,0,0,0,0,0,0,0,0,0,0,0,0,0,0,0,0,0,0,0,0,0,0,0,0,0,0,0,0,0.1968,0.1969,0,0.1987,0.1987,0.1987,0.1991,0.1992,0.1992,0.1992,0.2032,0.2033,0.2034,0,0,0,0,0,0,0,0,0,0,0,0,0,0.1934,0.1934,0.1968,0.1969,0.197,0.1987,0.1987,0.1987,0.1991,0.1992,0.1992,0.1992,0.2032,0.2033,0.2034,0,0,0,0,0,0,0,0,0,0,0,0,0,0.1946,0.1934,0.1968,0.1977,0.1978,0.1987,0.1987,0.1986,0.1991,0.1992,0.1992,0.1992,0.2031,0.2033,0.2034,0.2033,0,0,0.2038,0.2038,0,0,0,0,0,0,0,0,0.1946,0.1947,0.1975,0.1977,0.1978,0.1991,0.199,0.2005,0.1991,0.1982,0.1992,0.1993,0.2023,0.2025,0.2021,0.2035,0.2037,0.2038,0.2038,0.2039,0.2039,0,0,0,0,0,0,0,0.1945,0.1946,0.1971,0.1976,0.1978,0.198,0.1981,0.1992,0.1997,0.1983,0.1984,0.1993,0.2023,0.202,0.2022,0.2037,0.2038,0.2039,0.2039,0.204,0.2112,0.2114,0,0,0,0,0,0,0.1951,0.1946,0.1971,0.1972,0.1967,0.198,0.1982,0.1983,0.1996,0.2,0.1992,0.1993,0.2017,0.2021,0.2024,0.2099,0.2039,0.204,0.2041,0.2111,0.2113,0.2114,0,0,0,0,0,0,0.195,0.1952,0.197,0.1963,0.1966,0.1981,0.1982,0.1983,0.1997,0.2004,0.2007,0.2007,0.2018,0.2022,0.2061,0.2098,0.2041,0.2042,0.211,0.2112,0.2113,0.2202,0,0,0,0,0,0,0.1948,0.1952,0.1951,0.1963,0.1967,0.1999,0.1982,0.1983,0.2002,0.2004,0.2018,0.2021,0.2018,0.206,0.2063,0.2098,0.2043,0.2108,0.2111,0.2113,0.2197,0.2206,0.2214,0,0,0,0,0,0.1947,0.1959,0.195,0.1954,0.1966,0.2001,0.2004,0.2012,0.2003,0.2022,0.2033,0.2021,0.2075,0.2062,0.2065,0.2102,0.2107,0.211,0.2113,0.2194,0.2205,0.2214,0,0,0,0,0,0,0.1952,0.1961,0.1952,0.1967,0.199,0.2004,0.2025,0.2021,0.2041,0.2046,0.2041,0.2046,0.2093,0.2082,0.2067,0.2127,0.2087,0.2091,0.2148,0.2158,0.2166,0.2226,0.2044,0,0,0,0,0,0.1949,0.1968,0.1972,0.1997,0.2003,0.2011,0.2024,0.2031,0.2052,0.206,0.2071,0.2082,0.2102,0.2119,0.2131,0.2167,0.219,0.219,0.2198,0.2206,0.2255,0.2331,0.2352,0.2123,0.2123,0.2123,0,0,0.1953,0.1974,0.1976,0.2,0.2016,0.2029,0.2021,0.2057,0.2083,0.2062,0.2108,0.2115,0.2117,0.2162,0.2181,0.2162,0.2272,0.2209,0.2216,0.2262,0.2336,0.2359,0.2379,0.2125,0.2124,0.2124,0,0,0.1987,0.1995,0.2009,0.203,0.2064,0.2068,0.208,0.21,0.2126,0.2164,0.2159,0.2209,0.2214,0.2251,0.226,0.2325,0.2313,0.23,0.2399,0.247,0.2491,0.251,0.2527,0.2547,0.2306,0.2306,0.2306,0,0.1992,0.2024,0.2024,0.2051,0.208,0.2084,0.2109,0.2131,0.2168,0.2209,0.2193,0.2261,0.2271,0.2347,0.2379,0.2352,0.2365,0.2359,0.2486,0.2505,0.2523,0.2537,0.2557,0.2311,0.231,0.231,0.2309,0,0.2028,0.2059,0.2087,0.2112,0.2125,0.2178,0.2189,0.2236,0.2259,0.2276,0.2365,0.2391,0.2441,0.2441,0.2439,0.2559,0.2515,0.2487,0.2468,0.2552,0.2559,0.2579,0.2317,0.2316,0.2314,0.2313,0,0,0.2044,0.2098,0.2106,0.2122,0.2178,0.218,0.226,0.2323,0.2386,0.2421,0.2512,0.2573,0.2593,0.261,0.261,0.2691,0.2818,0.2656,0.2657,0.2688,0.2944,0.2815,0.2823,0.2808,0.2812,0.2816,0.2884,0,0.209,0.2138,0.2159,0.2201,0.2228,0.2274,0.2334,0.2384,0.2459,0.2544,0.2602,0.267,0.2646,0.2691,0.2768,0.2816,0.2882,0.2801,0.2848,0.2849,0.2738,0.2848,0.258,0.2612,0.2904,0.2907,0.291,0,0.2116,0.216,0.2224,0.2259,0.2269,0.2311,0.2427,0.2465,0.2594,0.2675,0.2775,0.2786,0.2916,0.2877,0.3021,0.2964,0.2982,0.3005,0.3007,0.2887,0.2761,0.2582,0.2637,0.2943,0.294,0.2938,0.2935,0,0.2129,0.218,0.2245,0.2269,0.2328,0.24,0.2418,0.2535,0.2613,0.2776,0.2892,0.2963,0.3086,0.3103,0.3153,0.3096,0.3298,0.3202,0.3095,0.3082,0.2869,0.283,0.3321,0.3321,0.3321,0.3321,0.3321,0,0.219,0.223,0.2271,0.2324,0.2404,0.2399,0.2524,0.2607,0.2743,0.2832,0.2954,0.3073,0.3171,0.3261,0.3217,0.3237,0.3344,0.3159,0.3122,0.2882,0.2846,0.3146,0.3125,0.3323,0.3323,0.3322,0.3322,0,0.2235,0.2273,0.2341,0.241,0.2444,0.2489,0.2589,0.2667,0.2826,0.2977,0.3036,0.3241,0.3343,0.3389,0.3468,0.3372,0.3349,0.3325,0.3017,0.2942,0.3048,0.3031,0.3176,0.3172,0.3169,0.3167,0.3165,0,0.2271,0.2323,0.2404,0.2452,0.2525,0.2593,0.2663,0.2752,0.2814,0.3032,0.3085,0.3292,0.3324,0.3418,0.3317,0.3222,0.3339,0.2955,0.28,0.31,0.3049,0.3036,0.3022,0.2531,0.2524,0.2518,0.2514,0,0.2338,0.2381,0.2424,0.2528,0.2617,0.2674,0.2737,0.28,0.2872,0.2966,0.3042,0.3072,0.3194,0.2998,0.2986,0.2878,0.2927,0.2831,0.329,0.2601,0.2496,0.2444,0.2452,0.2463,0.2468,0.2472,0.2474,0.2476,0.2361,0.2405,0.2452,0.2546,0.264,0.2698,0.2708,0.2709,0.2721,0.2719,0.2822,0.2748,0.2774,0.2546,0.2456,0.2428,0.2592,0.2454,0.2471,0.2494,0.2399,0.2295,0.2203,0.2207,0.221,0.2212,0.2215,0,0.2302,0.2366,0.2444,0.2517,0.2574,0.2677,0.2702,0.2603,0.2508,0.246,0.2399,0.2102,0.1977,0.2046,0.1883,0.185,0.1824,0.1804,0.1757,0.1808,0.1854,0.1726,0.1353,0.135,0.1348,0.1346,0,0,0.2262,0.2282,0.2323,0.2392,0.2502,0.2531,0.2539,0.2349,0.2209,0.1937,0.1791,0.1834,0.1901,0.1565,0.1543,0.1434,0.1607,0.1371,0.206,0.2052,0.2095,0.2223,0.2083,0,0,0,0,0]},{"header":{"parameterUnit":"m.s-1","parameterCategory":2,"la1":30.2991,"la2":30.254,"lo1":-89.0895,"lo2":-89.0444,"dy":0.0017,"dx":0.0017,"nx":28,"ny":28,"refTime":"2023-10-17T09:00:00:Z","depth":"2","parameterNumber":3,"parameterNumberName":"V-component_of_CURRENTS"},"data":[0,0,0,0,0,0,0,0,0,0,0,0,0,0,0,0,0,0,0,0,0,0,0,0,0,0,0,0,0,0,0,0,0,0,0,0,0,0,0,0,0,0,0,0,0,0,0,0,0,0,0,0,0,0,0,0,0,0,0.0028,0.0028,0,0.0017,0.0017,0.0017,-0.0006,-0.0007,-0.0007,-0.0007,-0.0042,-0.0043,-0.0044,0,0,0,0,0,0,0,0,0,0,0,0,0,0.0038,0.0037,0.0028,0.0028,0.0028,0.0017,0.0017,0.0017,-0.0006,-0.0007,-0.0007,-0.0008,-0.0042,-0.0043,-0.0044,0,0,0,0,0,0,0,0,0,0,0,0,0,0.003,0.0037,0.0028,0.0016,0.0015,0.0017,0.0017,0.0017,-0.0006,-0.0007,-0.0007,-0.0008,-0.0042,-0.0043,-0.0044,-0.0039,0,0,-0.0047,-0.0047,0,0,0,0,0,0,0,0,0.003,0.0029,0.0018,0.0017,0.0016,0.0007,0.0007,-0.0003,-0.0006,0.0001,-0.0007,-0.0008,-0.0027,-0.0029,-0.0031,-0.004,-0.0042,-0.0047,-0.0047,-0.0048,-0.0048,0,0,0,0,0,0,0,0.0031,0.003,0.0023,0.0018,0.0017,0.0014,0.0012,0.0005,-0.0011,0.0,-0.0001,-0.0001,-0.0028,-0.003,-0.0032,-0.0042,-0.0047,-0.0047,-0.0048,-0.0048,-0.0072,-0.0072,0,0,0,0,0,0,0.0034,0.003,0.0023,0.0023,0.0023,0.0015,0.0012,0.001,-0.0011,-0.0014,-0.0,-0.0002,-0.0029,-0.0031,-0.0034,-0.0035,-0.0048,-0.0048,-0.0049,-0.0072,-0.0072,-0.0073,0,0,0,0,0,0,0.0035,0.0034,0.0024,0.0027,0.0026,0.0015,0.0012,0.001,0.0004,-0.001,-0.0014,-0.0003,-0.0029,-0.0032,-0.0043,-0.0036,-0.0049,-0.005,-0.0072,-0.0072,-0.0072,-0.0033,0,0,0,0,0,0,0.0035,0.0034,0.0033,0.0027,0.0026,0.0026,0.0013,0.001,0.0006,0.0004,-0.0014,-0.0018,-0.003,-0.0041,-0.0043,-0.0037,-0.005,-0.0072,-0.0072,-0.0072,-0.0034,-0.0031,-0.0029,0,0,0,0,0,0.0035,0.0038,0.0033,0.0032,0.0025,0.0027,0.0026,0.0015,0.0007,0.0008,-0.0008,-0.0018,-0.0044,-0.0042,-0.0045,-0.0039,-0.0072,-0.0072,-0.0072,-0.0035,-0.0032,-0.0029,0,0,0,0,0,0,0.0037,0.0036,0.003,0.003,0.0029,0.0023,0.0026,0.0017,0.0006,0.0005,-0.0016,-0.002,-0.0028,-0.004,-0.0037,-0.0048,-0.0061,-0.0062,-0.0032,-0.0029,-0.0027,-0.0008,-0.0051,0,0,0,0,0,0.0039,0.0041,0.0038,0.0038,0.0041,0.0033,0.0032,0.0027,0.0018,0.0013,-0.0001,-0.0017,-0.003,-0.0035,-0.0048,-0.005,-0.0063,-0.005,-0.0048,-0.0046,-0.0034,-0.0058,-0.0056,-0.0073,-0.0073,-0.0073,0,0,0.0041,0.0039,0.004,0.0039,0.0039,0.0054,0.0031,0.0035,0.0044,0.0012,0.0015,-0.0008,-0.0029,-0.0034,-0.0038,-0.0043,-0.0048,-0.0046,-0.0044,-0.0033,-0.0058,-0.0056,-0.0054,-0.0073,-0.0073,-0.0073,0,0,0.0058,0.0045,0.0062,0.0063,0.0067,0.0066,0.0069,0.0065,0.0058,0.0056,0.0033,0.0015,-0.0002,-0.0015,-0.0024,-0.0017,-0.0037,-0.0026,0.0004,-0.0019,-0.0018,-0.0016,-0.0028,-0.0028,-0.0023,-0.0023,-0.0023,0,0.0061,0.008,0.0066,0.0085,0.0095,0.0075,0.0103,0.0093,0.0084,0.0087,0.0062,0.0036,0.0009,0.0011,0.0005,-0.001,-0.0024,-0.0002,-0.0015,-0.0014,-0.0014,-0.0026,-0.0027,-0.0021,-0.0021,-0.0022,-0.0022,0,0.01,0.0111,0.0121,0.0142,0.0149,0.0165,0.016,0.0159,0.0145,0.0138,0.0128,0.0086,0.0073,0.0054,0.0029,0.0023,0.0012,-0.001,-0.0018,-0.0009,-0.0023,-0.0025,-0.0019,-0.0019,-0.002,-0.002,0,0,0.0122,0.0146,0.0153,0.0178,0.0182,0.0202,0.0209,0.0224,0.0248,0.0207,0.023,0.0175,0.0148,0.0135,0.0097,0.0068,0.0047,0.0031,0.0029,0.0028,0.0003,-0.0015,-0.0018,0.0021,0.0021,0.002,-0.0007,0,0.0162,0.0223,0.0215,0.0269,0.0305,0.0284,0.0304,0.0308,0.03,0.0313,0.0256,0.0255,0.0181,0.0175,0.0132,0.0081,0.0045,0.0057,-0.0011,-0.0013,-0.0024,-0.002,0.0008,-0.0015,-0.0008,-0.0008,-0.0009,0,0.0213,0.025,0.0312,0.0357,0.037,0.0386,0.0428,0.0446,0.0443,0.043,0.0403,0.0365,0.0321,0.025,0.0157,0.0168,0.0086,0.0031,0.0029,-0.0,-0.0033,-0.0025,-0.0018,-0.0011,-0.0011,-0.0011,-0.0011,0,0.0268,0.0321,0.0377,0.0388,0.0428,0.0441,0.0467,0.0481,0.0515,0.0507,0.0527,0.046,0.0446,0.0331,0.0212,0.0181,0.0117,0.006,-0.0035,-0.0036,-0.0031,-0.0032,-0.002,-0.0019,-0.0019,-0.0019,-0.0019,0,0.0317,0.0361,0.0405,0.043,0.0503,0.051,0.0576,0.0583,0.0614,0.0679,0.0594,0.0634,0.0462,0.0406,0.0264,0.0132,0.0154,-0.0022,-0.0045,-0.0017,-0.0016,-0.003,-0.003,-0.002,-0.002,-0.002,-0.002,0,0.0356,0.0379,0.0451,0.0506,0.0523,0.0581,0.0646,0.0703,0.0715,0.0797,0.0797,0.0768,0.0693,0.0529,0.0372,0.0219,0.0082,0.0023,0.0074,0.0056,-0.0076,-0.0074,-0.0101,-0.0102,-0.0102,-0.0103,-0.0103,0,0.0385,0.0426,0.051,0.0559,0.0573,0.065,0.0705,0.0741,0.081,0.0899,0.0953,0.0912,0.089,0.0661,0.0407,0.016,0.0117,0.0008,-0.0069,-0.0064,-0.0084,-0.0081,-0.0079,-0.0044,-0.0044,-0.0044,-0.0044,0,0.0446,0.0468,0.0523,0.0623,0.0684,0.0772,0.0856,0.0924,0.0995,0.1066,0.1174,0.1168,0.0961,0.0739,0.0398,0.0225,0.0043,-0.0003,0.0009,-0.0031,-0.0014,-0.0032,-0.0031,-0.0043,-0.0043,-0.0043,-0.0044,-0.0044,0.0497,0.0543,0.0613,0.0704,0.0779,0.0883,0.0964,0.107,0.1192,0.1294,0.1313,0.1276,0.1032,0.0574,0.0343,0.0067,0.0042,-0.009,-0.0088,-0.0087,-0.008,-0.0065,-0.0102,-0.0102,-0.0102,-0.0103,-0.0103,0,0.0577,0.0613,0.0699,0.0805,0.0893,0.091,0.1058,0.1147,0.1303,0.1349,0.1405,0.1136,0.0901,0.0624,0.0224,-0.0024,-0.0049,-0.0105,-0.007,-0.0069,-0.0069,-0.0059,-0.0077,-0.0077,-0.0077,-0.0078,0,0,0.0622,0.0706,0.0737,0.0883,0.0943,0.1038,0.1118,0.1261,0.1328,0.1367,0.1309,0.1232,0.0919,0.0631,0.0345,0.0145,0.008,0.0088,0.0087,0.0163,0.0167,-0.0043,-0.0025,0,0,0,0,0]}],[{"header":{"parameterUnit":"m.s-1","parameterCategory":2,"la1":30.2991,"la2":30.254,"lo1":-89.0895,"lo2":-89.0444,"dy":0.0017,"dx":0.0017,"nx":28,"ny":28,"refTime":"2023-10-17T09:00:00:Z","depth":"4","parameterNumber":2,"parameterNumberName":"U-component_of_CURRENTS"},"data":[0,0,0,0,0,0,0,0,0,0,0,0,0,0,0,0,0,0,0,0,0,0,0,0,0,0,0,0,0,0,0,0,0,0,0,0,0,0,0,0,0,0,0,0,0,0,0,0,0,0,0,0,0,0,0,0,0,0,0.1066,0.1067,0,0.1113,0.1113,0.1114,0.1169,0.117,0.1171,0.1172,0.123,0.1231,0.1232,0,0,0,0,0,0,0,0,0,0,0,0,0,0.1014,0.1015,0.1066,0.1067,0.1067,0.1113,0.1113,0.1114,0.1169,0.117,0.1172,0.1173,0.123,0.1231,0.1232,0,0,0,0,0,0,0,0,0,0,0,0,0,0.1045,0.1015,0.1066,0.1101,0.1105,0.1113,0.1114,0.1114,0.1169,0.117,0.1172,0.1173,0.123,0.1231,0.1232,0.1209,0,0,0.1235,0.1235,0,0,0,0,0,0,0,0,0.1043,0.1047,0.1095,0.1099,0.1103,0.1138,0.1117,0.1147,0.1169,0.1144,0.1172,0.1174,0.12,0.1204,0.1208,0.1212,0.1215,0.1235,0.1236,0.1236,0.1236,0,0,0,0,0,0,0,0.1041,0.1045,0.1084,0.1096,0.1101,0.1111,0.1117,0.1122,0.1163,0.1146,0.115,0.1157,0.1202,0.1206,0.1209,0.1215,0.1235,0.1236,0.1236,0.1237,0.1305,0.1306,0,0,0,0,0,0,0.1037,0.1043,0.1082,0.1085,0.1077,0.1111,0.1118,0.1124,0.1162,0.117,0.1156,0.1159,0.1204,0.1208,0.1212,0.1272,0.1236,0.1237,0.1237,0.1303,0.1305,0.1306,0,0,0,0,0,0,0.1035,0.1039,0.108,0.1066,0.1072,0.1111,0.1117,0.1125,0.1159,0.117,0.1178,0.1186,0.1205,0.121,0.1254,0.1272,0.1237,0.1238,0.1302,0.1304,0.1305,0.1338,0,0,0,0,0,0,0.1033,0.1039,0.1051,0.1066,0.1073,0.1107,0.1116,0.1124,0.1159,0.1165,0.1198,0.1203,0.1207,0.1252,0.1255,0.1272,0.1239,0.13,0.1303,0.1305,0.1336,0.1341,0.1346,0,0,0,0,0,0.1031,0.1038,0.1051,0.1056,0.1085,0.1108,0.1113,0.1144,0.116,0.1179,0.121,0.1204,0.1268,0.1254,0.1257,0.1275,0.1299,0.1302,0.1305,0.1333,0.134,0.1345,0,0,0,0,0,0,0.1027,0.1045,0.1059,0.1074,0.11,0.1118,0.1139,0.1156,0.1194,0.1209,0.122,0.1227,0.1276,0.127,0.1254,0.1302,0.1282,0.1285,0.1303,0.1309,0.1314,0.1317,0.124,0,0,0,0,0,0.1028,0.1039,0.1062,0.1078,0.1093,0.112,0.1137,0.116,0.1189,0.1208,0.1229,0.1254,0.1281,0.1293,0.1316,0.1334,0.1342,0.1348,0.1353,0.1357,0.1363,0.1402,0.141,0.1315,0.1315,0.1315,0,0,0.1027,0.1043,0.1048,0.1078,0.1101,0.112,0.1135,0.1171,0.119,0.1206,0.1248,0.1279,0.1294,0.1329,0.1347,0.1328,0.1388,0.1361,0.1364,0.1368,0.1405,0.1415,0.1423,0.1317,0.1317,0.1316,0,0,0.1022,0.1051,0.1055,0.108,0.1121,0.1139,0.1155,0.119,0.1216,0.1254,0.1279,0.1327,0.135,0.1373,0.1384,0.1426,0.1422,0.1431,0.1447,0.1485,0.1493,0.15,0.1517,0.1525,0.1422,0.1422,0.1422,0,0.1026,0.1033,0.1062,0.1079,0.1105,0.1149,0.1168,0.1192,0.1238,0.1263,0.1276,0.1354,0.137,0.1416,0.1436,0.1437,0.1452,0.1421,0.1491,0.1498,0.1505,0.152,0.1529,0.1424,0.1423,0.1423,0.1423,0,0.1013,0.1036,0.1047,0.108,0.1114,0.1143,0.1182,0.1217,0.1256,0.1282,0.1354,0.1393,0.1444,0.1451,0.1455,0.1513,0.1506,0.1501,0.1474,0.1517,0.153,0.1539,0.1426,0.1426,0.1425,0.1425,0,0,0.0982,0.1027,0.1036,0.1056,0.1123,0.1144,0.1189,0.1237,0.1272,0.1327,0.1382,0.1437,0.1483,0.15,0.1524,0.1546,0.1606,0.1544,0.1545,0.1557,0.1681,0.1558,0.1555,0.1617,0.1619,0.162,0.1669,0,0.097,0.0984,0.1026,0.1063,0.1076,0.1147,0.1184,0.124,0.1294,0.1357,0.1417,0.1485,0.1492,0.1539,0.1569,0.1616,0.1632,0.1593,0.1641,0.1643,0.1525,0.1562,0.1626,0.1675,0.1677,0.1679,0.168,0,0.094,0.0957,0.0979,0.105,0.1069,0.1109,0.1194,0.1243,0.1336,0.1383,0.1469,0.1526,0.1611,0.1601,0.1691,0.167,0.168,0.1691,0.1693,0.1572,0.1535,0.1626,0.1695,0.1694,0.1693,0.1692,0.1691,0,0.0878,0.093,0.0948,0.0971,0.1051,0.1095,0.1162,0.1253,0.1315,0.1426,0.1477,0.1583,0.1665,0.1701,0.1742,0.1732,0.1811,0.1801,0.1688,0.1679,0.1761,0.1753,0.1838,0.1838,0.1837,0.1837,0.1837,0,0.0836,0.0855,0.0922,0.0934,0.0978,0.1067,0.1148,0.1214,0.1344,0.1416,0.1507,0.157,0.1697,0.1756,0.1765,0.1755,0.1837,0.1697,0.1687,0.1772,0.1765,0.1767,0.1758,0.1839,0.1839,0.1838,0.1838,0,0.0763,0.0803,0.0829,0.0915,0.0948,0.0991,0.115,0.1204,0.1323,0.1426,0.1474,0.1612,0.1685,0.1751,0.1828,0.1782,0.1779,0.174,0.1824,0.1817,0.1616,0.1609,0.1638,0.1634,0.1631,0.1628,0.1625,0,0.0718,0.0719,0.0803,0.0828,0.0877,0.0963,0.1022,0.1176,0.1251,0.1422,0.1462,0.1586,0.165,0.1662,0.1735,0.174,0.1708,0.1695,0.1655,0.161,0.1598,0.1596,0.1593,0.162,0.1619,0.1619,0.1618,0,0.0644,0.0686,0.0721,0.0765,0.0825,0.0877,0.0991,0.104,0.1215,0.133,0.1421,0.1467,0.154,0.1606,0.1618,0.1611,0.1706,0.166,0.1667,0.163,0.1589,0.158,0.1581,0.1606,0.1608,0.1609,0.161,0,0.0608,0.061,0.0667,0.0704,0.0761,0.0781,0.085,0.0955,0.1054,0.1264,0.1293,0.1399,0.1539,0.1536,0.1542,0.1537,0.1516,0.1463,0.148,0.1493,0.142,0.1346,0.1284,0,0,0,0,0,0.0564,0.0566,0.0599,0.0636,0.0689,0.0714,0.0823,0.0902,0.1071,0.1105,0.1211,0.1266,0.1316,0.1379,0.1345,0.1449,0.1497,0.1399,0.1438,0.1543,0.1556,0.1481,0,0,0,0,0,0,0.0544,0.0564,0.0574,0.057,0.0581,0.0622,0.0676,0.078,0.0829,0.1005,0.1047,0.1177,0.1246,0.1321,0.1317,0.1332,0.1327,0.1484,0.148,0.1535,0.1547,0.1558,0.1486,0,0,0,0,0]},{"header":{"parameterUnit":"m.s-1","parameterCategory":2,"la1":30.2991,"la2":30.254,"lo1":-89.0895,"lo2":-89.0444,"dy":0.0017,"dx":0.0017,"nx":28,"ny":28,"refTime":"2023-10-17T09:00:00:Z","depth":"4","parameterNumber":3,"parameterNumberName":"V-component_of_CURRENTS"},"data":[0,0,0,0,0,0,0,0,0,0,0,0,0,0,0,0,0,0,0,0,0,0,0,0,0,0,0,0,0,0,0,0,0,0,0,0,0,0,0,0,0,0,0,0,0,0,0,0,0,0,0,0,0,0,0,0,0,0,0.0078,0.0078,0,0.0071,0.0071,0.0071,0.0065,0.0065,0.0065,0.0065,0.0051,0.0051,0.005,0,0,0,0,0,0,0,0,0,0,0,0,0,0.0082,0.0082,0.0078,0.0078,0.0078,0.0071,0.0071,0.0071,0.0065,0.0065,0.0065,0.0065,0.0051,0.0051,0.005,0,0,0,0,0,0,0,0,0,0,0,0,0,0.0077,0.0082,0.0078,0.0075,0.0075,0.0071,0.0071,0.0071,0.0065,0.0065,0.0065,0.0065,0.0051,0.0051,0.005,0.0045,0,0,0.0048,0.0048,0,0,0,0,0,0,0,0,0.0077,0.0077,0.0076,0.0075,0.0075,0.007,0.0067,0.0062,0.0065,0.0068,0.0065,0.0065,0.0057,0.0056,0.0053,0.0044,0.0043,0.0048,0.0048,0.0048,0.0047,0,0,0,0,0,0,0,0.0077,0.0077,0.0074,0.0076,0.0075,0.0073,0.0072,0.0066,0.0061,0.0067,0.0067,0.0068,0.0057,0.0054,0.0053,0.0043,0.0048,0.0048,0.0047,0.0047,0.0017,0.0017,0,0,0,0,0,0,0.0081,0.0077,0.0074,0.0074,0.0078,0.0073,0.0072,0.0071,0.0061,0.006,0.0068,0.0068,0.0055,0.0054,0.0052,0.0049,0.0048,0.0047,0.0047,0.0017,0.0017,0.0016,0,0,0,0,0,0,0.0081,0.008,0.0075,0.0076,0.0076,0.0073,0.0071,0.007,0.0068,0.0062,0.0061,0.0067,0.0055,0.0053,0.0047,0.0049,0.0047,0.0046,0.0018,0.0017,0.0017,0.0041,0,0,0,0,0,0,0.0081,0.008,0.0078,0.0077,0.0076,0.0074,0.0071,0.007,0.0069,0.0069,0.0061,0.006,0.0055,0.0048,0.0047,0.0048,0.0046,0.0018,0.0018,0.0017,0.004,0.0041,0.0042,0,0,0,0,0,0.0081,0.008,0.0078,0.0078,0.0074,0.0074,0.0073,0.007,0.0069,0.0068,0.0063,0.006,0.0042,0.0048,0.0046,0.0047,0.0019,0.0018,0.0017,0.004,0.0041,0.0041,0,0,0,0,0,0,0.0076,0.008,0.0077,0.0076,0.0075,0.0073,0.0074,0.0071,0.0066,0.0066,0.0059,0.0057,0.005,0.0042,0.0049,0.0033,0.0028,0.0027,0.0047,0.0047,0.0048,0.0065,0.0045,0,0,0,0,0,0.0075,0.0079,0.0078,0.0077,0.0078,0.0075,0.0074,0.0074,0.0071,0.0068,0.0063,0.0054,0.0044,0.0042,0.0032,0.0027,0.0007,0.0023,0.0024,0.0025,0.0036,-0.0006,-0.0008,0.0013,0.0013,0.0013,0,0,0.0074,0.0076,0.0078,0.0077,0.0077,0.0089,0.0075,0.0077,0.0087,0.0068,0.0075,0.0057,0.0042,0.0037,0.0033,0.0032,0.0007,0.0023,0.0024,0.0035,-0.0007,-0.0009,-0.0011,0.0013,0.0013,0.0013,0,0,0.0087,0.0075,0.009,0.0091,0.0095,0.0094,0.0096,0.0095,0.0092,0.0092,0.008,0.0062,0.0052,0.0042,0.0035,0.0031,0.001,0.0024,0.0044,0.0004,0.0002,0.0,-0.0031,-0.0035,0.0026,0.0026,0.0026,0,0.0086,0.0106,0.0092,0.0109,0.0118,0.0101,0.0124,0.0116,0.0112,0.0112,0.0098,0.0073,0.0056,0.0051,0.0047,0.0034,0.001,0.0046,0.0005,0.0003,0.0001,-0.003,-0.0036,0.0027,0.0027,0.0027,0.0026,0,0.012,0.0132,0.0139,0.0159,0.0161,0.0174,0.0168,0.0167,0.0157,0.0148,0.0133,0.0101,0.009,0.0072,0.006,0.0039,0.0026,0.001,0.0007,0.0,-0.0032,-0.0038,0.0028,0.0028,0.0028,0.0027,0,0,0.0136,0.0162,0.0166,0.0188,0.0192,0.0201,0.0209,0.0217,0.0226,0.0195,0.02,0.0162,0.0137,0.0127,0.0099,0.0059,0.0014,0.0031,0.0029,0.0008,-0.0071,-0.0063,-0.0069,-0.0012,-0.0013,-0.0013,-0.0088,0,0.0173,0.0223,0.0221,0.0264,0.0291,0.0275,0.0288,0.0284,0.0266,0.026,0.021,0.02,0.016,0.0152,0.0105,0.0038,-0.0,0.0037,-0.0067,-0.0069,-0.0056,-0.0075,-0.0016,-0.0093,-0.0094,-0.0095,-0.0096,0,0.0216,0.0245,0.0301,0.0331,0.0341,0.0359,0.0376,0.0386,0.0362,0.0345,0.0313,0.027,0.0219,0.0179,0.0064,0.0088,0.0017,-0.0043,-0.0048,-0.0049,-0.0072,-0.0086,-0.0108,-0.0107,-0.0106,-0.0105,-0.0104,0,0.0252,0.0299,0.0351,0.0362,0.0392,0.041,0.0425,0.0415,0.0431,0.0401,0.0394,0.0323,0.029,0.0186,0.0057,0.006,-0.0082,-0.0093,-0.0151,-0.0151,-0.0146,-0.0143,-0.0173,-0.0173,-0.0173,-0.0173,-0.0173,0,0.0294,0.0333,0.0376,0.0401,0.046,0.046,0.0507,0.0504,0.0505,0.0518,0.0446,0.0425,0.0287,0.0186,0.007,-0.0061,-0.0074,-0.0146,-0.0171,-0.0135,-0.013,-0.015,-0.0147,-0.0176,-0.0175,-0.0175,-0.0174,0,0.032,0.0353,0.0411,0.0457,0.048,0.052,0.0571,0.0597,0.0588,0.0599,0.0592,0.0502,0.0373,0.0222,0.0049,-0.0033,-0.0168,-0.0211,-0.0158,-0.0179,-0.021,-0.0204,-0.0269,-0.0269,-0.0269,-0.027,-0.027,0,0.034,0.0377,0.0451,0.049,0.0514,0.0577,0.0621,0.0644,0.0669,0.0638,0.0641,0.0531,0.0448,0.0213,0.0055,-0.0156,-0.0185,-0.0246,-0.0228,-0.0202,-0.022,-0.0214,-0.0208,-0.027,-0.027,-0.027,-0.0271,0,0.0369,0.0397,0.0441,0.0523,0.0583,0.0648,0.0704,0.0732,0.0746,0.0741,0.0678,0.0552,0.041,0.0226,0.006,-0.0095,-0.0203,-0.025,-0.025,-0.0233,-0.0205,-0.0221,-0.0215,-0.0272,-0.0271,-0.0271,-0.0271,0,0.0387,0.0421,0.0481,0.0551,0.0623,0.0681,0.0717,0.0743,0.0773,0.0742,0.0718,0.0555,0.0471,0.0257,0.0096,-0.0049,-0.0076,-0.0113,-0.0121,-0.0122,-0.0058,-0.0,-0.0025,0,0,0,0,0,0.0402,0.0444,0.0504,0.0579,0.0641,0.0688,0.0754,0.0782,0.0802,0.077,0.0748,0.0611,0.0385,0.0285,0.0144,0.0087,-0.0107,-0.0083,-0.0156,-0.0277,-0.0276,-0.0227,0,0,0,0,0,0,0.0417,0.0475,0.0504,0.0581,0.0632,0.071,0.0754,0.0772,0.0757,0.0749,0.0633,0.0584,0.0364,0.0463,0.0142,0.0098,0.0035,-0.0185,-0.0187,-0.0278,-0.0277,-0.0276,-0.0225,0,0,0,0,0]}]]